Wind_Speed
10 10 10 11 13 14 16 17 19 20 21 23 24 26 28 29 29 30 30 31 31 32 31 29 29 27 25 24 22 22 25 26 17 29 29 28 31 34 38 39 37 38 40
6 5 6 8 11 15 17 18 20 22 23 24 27 29 31 33 34 35 36 35 34 34 33 33 33 30 30 29 27 26 25 26 26 23 29 27 30 32 34 37 39 40 41
3 0 3 6 9 13 17 20 22 23 24 26 29 31 34 35 37 37 36 36 34 33 34 32 32 31 32 30 29 28 28 27 27 25 28 28 31 32 34 36 37 39 41
8 5 4 6 10 14 19 22 24 25 29 33 36 37 36 34 30 29 28 29 30 30 31 30 31 30 29 28 28 27 27 26 25 25 25 25 26 27 30 27 29 36 40
9 7 6 8 12 17 21 24 26 29 32 34 35 37 34 30 25 26 27 29 30 32 32 31 30 30 29 29 29 28 27 26 25 24 24 22 22 20 23 24 26 25 35
11 9 7 11 16 20 23 26 30 33 34 36 35 33 31 25 25 28 29 32 32 32 34 34 33 32 31 31 31 30 30 30 30 28 28 25 26 22 26 26 25 19 8
11 9 12 15 18 21 24 28 31 33 35 35 33 30 30 28 25 28 30 32 33 34 33 33 33 31 31 30 30 33 34 35 38 38 36 35 31 28 25 28 28 26 27
11 11 14 16 18 22 26 28 30 31 33 33 34 33 28 28 29 30 30 31 30 30 30 30 30 31 31 32 34 36 36 37 37 35 36 42 38 35 33 33 32 34 32
11 12 13 15 19 21 22 25 27 30 32 33 27 29 31 33 28 29 30 29 29 29 29 27 27 28 29 29 32 33 36 40 36 40 44 47 46 44 39 32 30 25 21
12 12 14 16 17 19 21 23 25 26 30 28 29 30 32 33 29 27 27 28 29 28 28 28 27 29 30 29 31 31 33 32 31 31 34 39 43 45 43 43 39 30 27
12 13 13 13 15 17 19 20 23 26 27 30 30 30 30 30 32 27 28 29 28 30 29 27 27 31 31 31 31 32 32 35 37 39 40 38 38 39 39 40 43 41 33
13 12 12 12 13 16 18 20 22 24 26 27 27 27 27 31 30 28 29 30 32 33 31 32 33 34 34 34 35 37 39 37 32 29 28 33 37 34 37 39 39 40 42
13 11 11 12 13 14 17 20 23 22 22 20 20 23 27 31 32 29 30 31 32 35 35 36 40 40 39 38 36 36 36 34 32 31 32 34 38 41 42 39 37 38 40
12 11 11 12 13 13 15 18 20 22 20 18 22 25 27 26 26 29 33 34 32 32 33 37 38 37 37 39 36 35 33 33 33 34 34 37 37 37 41 43 35 33 32
11 11 11 12 13 15 15 17 19 21 19 23 24 26 27 27 29 34 35 34 34 35 39 31 28 27 27 23 24 29 32 33 32 35 33 33 34 33 37 43 38 32 27
12 11 11 12 13 15 16 22 17 16 17 20 22 22 25 28 31 32 33 34 34 32 30 23 23 23 23 24 26 29 29 29 30 31 31 32 32 34 39 36 29 30 26
12 11 11 12 13 14 15 17 21 26 19 13 14 19 21 24 27 29 29 28 27 23 20 21 21 23 24 25 26 27 29 32 31 30 29 29 29 33 24 31 28 17 15
13 11 11 12 12 13 14 16 17 17 21 32 24 20 19 22 24 25 24 25 29 25 19 21 24 25 26 27 29 28 31 32 29 26 25 26 25 26 20 16 16 17 17
15 13 12 12 11 12 13 16 15 16 17 21 28 26 24 23 23 21 20 22 21 23 24 24 24 26 27 28 29 30 30 31 31 27 25 24 24 23 24 18 16 22 25
14 13 12 12 12 12 11 13 13 14 17 18 20 22 26 24 31 29 27 25 22 22 23 25 27 27 28 28 30 29 29 30 31 23 24 24 24 22 21 22 19 19 17
15 14 13 13 13 11 10 10 11 13 16 17 20 18 17 20 23 25 26 26 25 26 26 27 28 28 29 29 29 29 28 27 27 27 19 22 23 22 22 24 21 17 12
16 15 15 14 12 12 10 10 10 11 13 15 18 18 16 18 20 23 24 26 27 26 26 27 29 29 29 30 30 29 28 27 28 27 25 20 14 10 10 12 12 12 13
16 16 15 14 12 11 11 10 10 10 11 13 15 17 19 20 21 22 23 25 26 27 27 27 28 30 31 31 30 28 27 27 27 23 21 17 12 8 3 4 8 10 12
17 17 15 14 12 11 11 10 10 10 12 14 14 16 18 20 22 23 24 25 26 26 26 27 26 28 30 30 31 33 27 26 23 20 16 12 10 8 8 9 10 12 14
16 15 15 14 13 12 11 12 12 12 13 15 16 17 19 20 22 23 24 24 25 26 26 26 26 27 27 27 30 30 28 28 21 18 14 11 11 11 11 13 14 16 16
14 15 15 14 14 13 13 14 15 15 16 17 17 18 19 20 21 22 23 24 26 27 26 25 24 24 23 22 26 29 26 25 22 18 14 14 14 15 16 16 17 17 17
Wind_Direction
82 70 57 44 34 24 15 8 359 352 349 346 345 343 342 340 339 335 334 331 329 325 323 321 316 316 314 313 311 300 284 273 266 282 278 277 272 270 269 271 272 269 266
92 66 36 17 7 3 359 352 346 341 339 338 336 334 332 331 330 329 327 325 323 319 315 312 307 309 307 306 303 300 294 288 269 276 281 277 271 271 270 268 267 265 264
169 110 1 349 346 346 344 340 337 333 331 330 328 327 325 323 323 322 322 319 316 312 308 305 301 301 299 299 298 295 291 287 278 268 275 278 277 274 269 265 263 262 260
222 241 292 322 330 333 334 332 331 331 330 328 327 325 324 323 320 319 316 312 307 302 298 294 293 292 290 292 292 289 288 282 277 268 271 272 270 272 268 260 261 258 257
225 241 269 302 319 323 323 323 324 325 324 323 321 320 320 318 315 313 309 303 299 295 292 289 288 288 287 286 287 285 283 282 280 275 271 269 260 255 251 261 252 253 257
226 229 268 298 310 315 316 319 320 321 322 322 321 319 318 315 310 307 303 300 296 293 291 290 289 288 288 288 285 281 278 277 274 273 273 269 266 257 260 253 254 245 256
216 250 281 297 304 311 316 318 321 322 322 321 320 318 314 312 312 308 303 299 294 290 289 289 290 288 289 288 287 284 281 276 271 270 270 267 269 262 258 253 246 244 247
237 263 281 293 302 310 314 317 319 320 320 320 318 319 315 310 311 308 305 300 296 292 290 290 288 288 286 286 287 283 279 275 271 271 269 270 267 268 259 253 251 250 253
245 264 278 290 303 308 311 315 319 319 319 319 316 312 313 311 312 311 308 302 297 295 294 292 290 290 289 289 283 280 278 275 277 274 271 270 269 266 260 260 246 241 247
242 258 276 295 301 307 313 315 316 317 315 314 310 315 318 312 318 312 309 302 297 297 296 293 291 292 292 293 292 290 288 290 294 292 276 271 269 266 260 250 249 240 243
246 260 279 291 301 307 309 313 315 317 315 316 316 317 315 321 322 311 308 304 298 294 291 292 291 292 294 292 288 285 282 285 283 281 281 286 273 267 258 249 244 238 240
252 269 282 291 301 307 309 315 317 318 316 316 313 308 309 318 312 304 308 304 301 299 296 290 286 289 288 285 281 277 280 286 288 288 283 278 275 280 259 252 245 241 237
253 268 282 294 301 307 312 316 318 317 312 306 302 298 302 309 301 301 304 302 299 296 290 290 293 293 291 290 287 286 286 279 274 270 268 267 269 274 276 259 244 237 239
257 270 285 296 304 311 313 315 311 310 308 299 296 293 299 302 306 307 299 295 297 297 295 292 288 289 287 283 276 277 274 270 268 267 266 268 269 267 263 272 237 230 228
259 277 290 296 306 312 312 314 308 306 302 298 301 303 307 310 310 312 315 315 310 308 310 311 310 306 309 296 277 270 266 264 261 262 262 265 268 264 259 258 242 223 223
258 273 286 297 307 309 312 317 317 300 305 305 306 308 312 311 316 318 317 316 317 321 320 320 312 307 303 303 301 297 289 279 264 259 262 267 269 269 256 251 223 217 219
258 270 282 292 298 303 312 314 313 326 326 321 319 320 322 322 325 327 328 326 327 329 327 316 311 310 308 307 303 298 295 287 277 268 266 269 276 282 266 245 236 222 206
257 267 276 285 288 299 306 305 305 304 311 323 332 328 329 331 334 337 341 341 345 343 330 318 313 313 312 309 307 301 298 289 277 268 265 267 278 296 280 243 235 233 225
251 261 268 271 282 292 296 296 301 305 305 308 325 334 349 339 335 344 349 350 331 327 326 323 320 316 314 312 311 311 309 304 286 269 266 266 269 276 288 286 279 242 222
253 260 262 266 279 284 291 293 301 306 309 315 312 322 340 336 342 344 349 344 335 328 326 322 321 320 319 318 318 316 317 321 323 283 257 262 264 262 270 277 281 238 203
254 256 257 261 271 281 283 288 297 303 307 314 315 332 332 336 336 340 342 340 336 331 331 329 327 327 329 326 326 325 324 326 330 335 303 262 262 258 258 262 257 245 220
251 254 255 258 268 269 273 281 289 296 303 310 316 330 332 337 340 340 343 344 346 346 344 338 334 334 335 332 330 331 330 329 333 337 340 339 328 317 286 253 227 208 187
248 253 253 256 259 265 269 273 281 290 300 306 314 323 330 332 333 336 337 342 346 348 349 349 346 345 352 352 345 341 342 336 338 343 344 346 352 356 14 109 134 129 134
254 255 253 255 254 259 267 276 281 289 297 302 312 319 322 326 328 331 335 339 342 344 348 347 349 349 353 359 357 354 352 355 352 353 355 0 13 31 61 82 98 115 116
256 255 254 255 258 263 270 277 283 289 294 299 309 313 318 322 325 328 332 335 338 340 342 345 347 348 351 358 6 2 3 360 5 6 14 28 45 58 71 85 94 97 104
259 257 259 261 266 269 273 279 285 291 296 301 307 311 315 318 321 325 331 334 336 336 338 341 344 346 349 355 4 360 7 7 11 20 30 44 57 70 79 82 87 85 94
Height
849 849 851 851 850 849 848 846 846 846 844 842 839 836 833 831 827 828 824 822 819 816 814 812 811 808 805 804 799 800 798 796 789 780 781 780 780 779 779 777 776 776 776
848 849 850 850 849 848 848 847 846 843 841 839 836 833 830 827 824 822 820 817 813 812 808 808 805 802 799 798 796 791 791 791 788 779 776 773 771 773 771 770 769 768 768
847 848 848 848 848 847 845 844 842 840 838 835 833 831 827 825 823 820 815 812 808 807 804 802 798 796 793 792 790 787 783 782 781 776 770 767 761 765 765 762 761 760 760
846 847 847 846 846 845 843 841 839 837 834 831 828 825 822 819 817 814 811 807 804 799 797 795 791 789 786 785 784 780 777 774 773 768 762 760 758 757 757 755 753 753 752
843 844 844 844 843 842 840 837 835 833 830 827 824 820 818 816 813 810 807 802 797 792 789 786 783 780 779 779 777 771 771 767 766 762 755 753 753 750 749 749 744 745 742
840 841 841 841 839 837 835 833 831 828 825 822 819 816 813 811 809 806 802 796 791 786 779 775 774 773 770 769 768 766 765 761 759 756 750 744 741 742 743 741 739 739 736
836 837 836 836 834 832 830 828 826 823 820 816 813 809 806 803 801 798 795 790 784 779 775 771 767 764 763 761 759 757 754 752 751 749 741 737 735 736 737 734 732 729 725
831 832 832 832 830 828 826 824 821 818 815 811 807 803 800 797 794 790 786 781 776 772 769 766 762 758 757 755 752 747 744 742 740 739 735 727 728 728 727 726 724 720 717
827 828 828 827 826 824 822 820 817 813 809 805 802 798 794 789 786 782 779 773 768 764 762 759 756 752 750 748 744 738 733 727 730 727 723 719 717 716 716 718 713 714 706
823 823 823 822 821 819 817 814 811 808 803 800 796 793 788 782 778 776 773 768 762 757 754 751 748 745 741 739 735 730 722 720 719 714 711 707 704 701 701 702 701 697 698
818 819 819 818 816 814 811 809 805 801 798 794 790 786 782 777 772 770 767 762 756 749 744 741 738 735 732 729 725 721 716 712 707 705 701 697 692 688 685 685 685 685 684
813 814 814 813 811 808 805 802 800 797 793 789 784 780 776 771 767 764 761 755 749 742 737 732 727 724 721 717 713 707 704 701 697 694 691 686 683 677 672 672 671 671 670
809 809 808 807 805 803 799 796 793 791 789 785 781 776 770 765 760 756 752 747 741 734 728 722 716 711 707 703 701 698 695 692 688 684 679 674 672 669 666 659 656 656 659
804 803 802 800 799 797 794 792 789 786 783 781 776 771 764 760 756 751 743 734 728 723 716 709 703 698 695 691 687 685 682 680 676 671 666 662 660 657 654 650 642 645 648
798 797 796 795 794 791 789 787 784 782 781 776 771 767 761 755 751 744 738 730 723 716 708 701 696 692 687 682 678 674 671 667 663 659 655 651 648 645 640 637 630 631 633
792 791 791 790 788 786 784 780 780 778 775 772 768 764 758 754 746 740 733 725 718 712 705 699 694 690 684 678 673 666 661 656 650 647 644 641 637 631 622 620 612 616 618
786 786 785 784 783 782 779 777 773 766 767 764 763 760 755 750 744 736 729 722 715 710 705 699 693 687 681 675 669 662 654 647 642 637 634 631 627 620 610 607 606 604 606
781 779 779 779 778 777 775 774 772 770 766 756 755 755 751 747 740 734 727 719 710 706 704 699 692 685 678 671 663 655 646 638 631 627 624 621 618 615 605 601 601 602 604
774 774 774 773 773 772 771 770 767 766 764 759 753 747 744 741 737 731 725 719 714 707 701 695 690 683 675 668 660 651 643 632 623 618 615 613 610 608 603 598 597 596 597
770 769 769 769 768 767 765 765 763 761 759 756 754 749 741 737 730 725 721 717 712 707 701 695 687 680 672 665 656 648 638 629 618 608 606 605 603 602 599 597 595 590 590
764 764 764 764 763 762 760 760 758 756 755 752 750 746 744 739 733 727 721 716 711 705 699 693 685 678 670 662 655 646 637 628 619 610 603 598 596 594 591 590 589 588 589
760 759 759 758 758 757 756 755 753 752 750 748 746 742 740 736 732 726 721 715 709 703 698 692 684 677 670 662 654 646 637 629 620 612 605 599 594 589 586 584 583 584 586
755 754 754 753 752 752 751 750 749 747 746 745 743 739 735 732 728 724 718 713 707 702 696 690 684 676 669 662 654 647 638 630 623 615 608 601 596 592 588 586 586 586 587
751 750 749 749 748 747 746 745 744 743 742 741 738 735 732 728 724 720 715 710 705 700 695 689 683 677 669 661 654 647 640 632 624 617 611 605 600 596 593 592 591 591 592
747 746 746 745 744 743 742 741 740 739 738 736 733 730 727 724 720 716 712 707 702 697 692 687 681 675 669 663 655 648 641 634 626 620 614 609 604 601 599 598 598 598 599
743 742 742 741 740 739 738 737 736 735 733 731 728 726 723 720 716 712 708 703 699 694 689 685 680 675 669 663 657 651 644 638 630 624 619 615 611 608 606 606 605 605 606